User: anonymous   Login
Location: Clatteringshaws Loch
(55.0508°N, 4.2860°W)
Time: 17:54:11
(UTC+00:00)
Language:

Cosmos 2221 Rocket - Orbit

View from above orbital plane
View from above orbital plane
View from above satellite
View from above satellite

Ground track
Ground track

The orbit data is extracted from the following two-line orbital elements,

1 22237U 92080B   16341.45284904  .00000121  00000-0  13439-4 0  9994
2 22237  82.5116 296.9981 0021163 113.9469  25.5943 14.78294261294963
Epoch (UTC): 06 December 2016 10:52:06
Eccentricity: 0.0021163
inclination: 82.5116°
perigee height: 620 km
apogee height: 649 km
right ascension of ascending node: 296.9981°
argument of perigee: 113.9469°
revolutions per day: 14.78294261
mean anomaly at epoch: 25.5943°
orbit number at epoch: 29496

The dashed part of the orbit path shows where the satellite is in the earth's shadow,  

DLR